Location: Dover
(48.8500°N, 53.9833°W)
Time: 16:06:37
(UTC+00:00)

CZ-4C R/B - Pass Details

Date: 14 November 2025
Orbit: 487 x 1493 km, 63.4° (Epoch: 12 December)

Event Time Altitude Azimuth Distance (km) Brightness Sun altitude
Rises 22:00:21 0° 272° (W) 2,942 6.6 -20.3°
Reaches altitude 10° 22:02:48 10° 286° (WNW) 2,165 5.3 -20.7°
Maximum altitude 22:06:53 25° 342° (NNW) 1,597 3.8 -21.4°
Enters shadow 22:10:08 16° 24° (NNE) 2,178 4.1 -21.9°
